Location: Zagreb
(45.8000°N, 16.0000°E)
Time: 07:13:20
(UTC+01:00)

N. Korean satellite - Pass Details

Date: 09 December 2021
Orbit: 447 x 491 km, 97.3° (Epoch: 23 January)

Event Time Altitude Azimuth Distance (km) Brightness Sun altitude
Rises 17:09:33 0° 200° (SSW) 2,509 10.9 -9.8°
Reaches altitude 10° 17:12:02 10° 218° (SW) 1,628 10.3 -10.2°
Maximum altitude 17:14:37 19° 266° (W) 1,161 9.6 -10.6°
Drops below altitude 10° 17:17:12 10° 314° (NW) 1,619 9.5 -11.0°
Sets 17:19:40 0° 333° (NNW) 2,490 10.3 -11.4°
